Time,TemperatureF,DewpointF,PressureIn,WindDirection,WindDirectionDegrees,WindSpeedMPH,WindSpeedGustMPH,Humidity,HourlyPrecipIn,Conditions,Clouds,dailyrainin,SoftwareType,DateUTC
2013-01-03 00:02:00,39.7,29.7,29.93,North,-999,-999.0,-999.0,40,0.00,,,0.00,meteohub,2013-01-03 08:02:00,
2013-01-03 00:07:00,39.7,29.7,29.93,North,-999,-999.0,-999.0,40,0.00,,,0.00,meteohub,2013-01-03 08:07:00,
2013-01-03 00:12:00,39.6,29.5,29.93,North,-999,-999.0,-999.0,40,0.00,,,0.00,meteohub,2013-01-03 08:12:00,
2013-01-03 00:17:00,39.6,29.5,29.93,North,-999,-999.0,-999.0,40,0.00,,,0.00,meteohub,2013-01-03 08:17:00,
2013-01-03 00:22:00,39.6,29.1,29.93,North,-999,-999.0,-999.0,40,0.00,,,0.00,meteohub,2013-01-03 08:22:00,
2013-01-03 00:27:00,39.4,28.9,29.93,North,-999,-999.0,-999.0,40,0.00,,,0.00,meteohub,2013-01-03 08:27:00,
2013-01-03 00:32:00,39.4,28.9,29.93,North,-999,-999.0,-999.0,40,0.00,,,0.00,meteohub,2013-01-03 08:32:00,
2013-01-03 00:37:00,39.2,29.1,29.93,North,-999,-999.0,-999.0,40,0.00,,,0.00,meteohub,2013-01-03 08:37:00,
2013-01-03 00:42:00,39.2,29.1,29.96,North,-999,-999.0,-999.0,40,0.00,,,0.00,meteohub,2013-01-03 08:42:00,
2013-01-03 00:47:00,39.0,29.3,29.96,North,-999,-999.0,-999.0,40,0.00,,,0.00,meteohub,2013-01-03 08:47:00,
2013-01-03 00:53:00,39.2,29.5,29.96,North,-999,-999.0,-999.0,40,0.00,,,0.00,meteohub,2013-01-03 08:53:00,
2013-01-03 00:58:00,39.0,29.3,29.96,North,-999,-999.0,-999.0,40,0.00,,,0.00,meteohub,2013-01-03 08:58:00,
2013-01-03 01:03:00,38.8,29.1,29.96,North,-999,-999.0,-999.0,40,0.00,,,0.00,meteohub,2013-01-03 09:03:00,
2013-01-03 01:08:00,38.8,29.1,29.96,North,-999,-999.0,-999.0,40,0.00,,,0.00,meteohub,2013-01-03 09:08:00,
2013-01-03 01:13:00,38.8,29.1,29.96,North,-999,-999.0,-999.0,39,0.00,,,0.00,meteohub,2013-01-03 09:13:00,
2013-01-03 01:18:00,38.8,29.1,29.96,North,-999,-999.0,-999.0,39,0.00,,,0.00,meteohub,2013-01-03 09:18:00,
2013-01-03 01:24:00,38.7,28.9,29.96,North,-999,-999.0,-999.0,39,0.00,,,0.00,meteohub,2013-01-03 09:24:00,
2013-01-03 01:29:00,38.7,29.3,29.96,North,-999,-999.0,-999.0,39,0.00,,,0.00,meteohub,2013-01-03 09:29:00,
2013-01-03 01:34:00,38.5,29.1,29.96,North,-999,-999.0,-999.0,39,0.00,,,0.00,meteohub,2013-01-03 09:34:00,
2013-01-03 01:39:00,38.5,29.1,29.96,North,-999,-999.0,-999.0,39,0.00,,,0.00,meteohub,2013-01-03 09:39:00,
2013-01-03 01:44:00,38.3,28.9,29.96,North,-999,-999.0,-999.0,39,0.00,,,0.00,meteohub,2013-01-03 09:44:00,
2013-01-03 01:49:00,38.3,28.9,29.96,North,-999,-999.0,-999.0,39,0.00,,,0.00,meteohub,2013-01-03 09:49:00,
2013-01-03 01:54:00,38.1,28.9,29.96,North,-999,-999.0,-999.0,39,0.00,,,0.00,meteohub,2013-01-03 09:54:00,
2013-01-03 02:00:00,38.1,28.9,29.96,North,-999,-999.0,-999.0,39,0.00,,,0.00,meteohub,2013-01-03 10:00:00,
2013-01-03 02:05:00,38.1,28.9,29.96,North,-999,-999.0,-999.0,39,0.00,,,0.00,meteohub,2013-01-03 10:05:00,
2013-01-03 02:10:00,38.1,28.9,29.96,North,-999,-999.0,-999.0,39,0.00,,,0.00,meteohub,2013-01-03 10:10:00,
2013-01-03 02:15:00,37.9,28.8,29.96,North,-999,-999.0,-999.0,39,0.00,,,0.00,meteohub,2013-01-03 10:15:00,
2013-01-03 02:20:00,37.9,28.8,29.96,North,-999,-999.0,-999.0,39,0.00,,,0.00,meteohub,2013-01-03 10:20:00,
2013-01-03 02:25:00,37.8,28.9,29.96,North,-999,-999.0,-999.0,39,0.00,,,0.00,meteohub,2013-01-03 10:25:00,
2013-01-03 02:31:00,37.8,28.9,29.96,North,-999,-999.0,-999.0,39,0.00,,,0.00,meteohub,2013-01-03 10:31:00,
2013-01-03 02:36:00,37.8,28.9,29.96,North,-999,-999.0,-999.0,39,0.00,,,0.00,meteohub,2013-01-03 10:36:00,
2013-01-03 02:41:00,37.8,28.9,29.96,North,-999,-999.0,-999.0,39,0.00,,,0.00,meteohub,2013-01-03 10:41:00,
2013-01-03 02:46:00,37.8,28.9,29.96,North,-999,-999.0,-999.0,40,0.00,,,0.00,meteohub,2013-01-03 10:46:00,
2013-01-03 02:51:00,37.6,28.8,29.96,North,-999,-999.0,-999.0,40,0.00,,,0.00,meteohub,2013-01-03 10:51:00,
2013-01-03 02:56:00,37.6,28.8,29.96,North,-999,-999.0,-999.0,40,0.00,,,0.00,meteohub,2013-01-03 10:56:00,
2013-01-03 03:02:00,37.6,29.1,29.96,North,-999,-999.0,-999.0,40,0.00,,,0.00,meteohub,2013-01-03 11:02:00,
2013-01-03 03:07:00,37.6,29.1,29.96,North,-999,-999.0,-999.0,40,0.00,,,0.00,meteohub,2013-01-03 11:07:00,
2013-01-03 03:12:00,37.4,28.9,29.96,North,-999,-999.0,-999.0,40,0.00,,,0.00,meteohub,2013-01-03 11:12:00,
2013-01-03 03:17:00,37.4,28.9,29.96,North,-999,-999.0,-999.0,40,0.00,,,0.00,meteohub,2013-01-03 11:17:00,
2013-01-03 03:22:00,37.4,28.9,29.96,North,-999,-999.0,-999.0,40,0.00,,,0.00,meteohub,2013-01-03 11:22:00,
2013-01-03 03:27:00,37.4,28.9,29.96,North,-999,-999.0,-999.0,40,0.00,,,0.00,meteohub,2013-01-03 11:27:00,
2013-01-03 03:32:00,37.2,28.8,29.96,North,-999,-999.0,-999.0,40,0.00,,,0.00,meteohub,2013-01-03 11:32:00,
2013-01-03 03:37:00,37.2,28.8,29.96,North,-999,-999.0,-999.0,40,0.00,,,0.00,meteohub,2013-01-03 11:37:00,
2013-01-03 03:42:00,37.2,29.1,29.96,North,-999,-999.0,-999.0,39,0.00,,,0.00,meteohub,2013-01-03 11:42:00,
2013-01-03 03:47:00,37.2,29.1,29.96,North,-999,-999.0,-999.0,39,0.00,,,0.00,meteohub,2013-01-03 11:47:00,
2013-01-03 03:52:00,37.2,29.1,29.96,North,-999,-999.0,-999.0,39,0.00,,,0.00,meteohub,2013-01-03 11:52:00,
2013-01-03 03:57:00,37.2,29.1,29.96,North,-999,-999.0,-999.0,39,0.00,,,0.00,meteohub,2013-01-03 11:57:00,
2013-01-03 04:02:00,37.0,28.9,29.96,North,-999,-999.0,-999.0,39,0.00,,,0.00,meteohub,2013-01-03 12:02:00,
2013-01-03 04:07:00,37.0,28.9,29.96,North,-999,-999.0,-999.0,39,0.00,,,0.00,meteohub,2013-01-03 12:07:00,
2013-01-03 04:12:00,37.0,28.9,29.96,North,-999,-999.0,-999.0,39,0.00,,,0.00,meteohub,2013-01-03 12:12:00,
2013-01-03 04:17:00,37.0,28.9,29.96,North,-999,-999.0,-999.0,39,0.00,,,0.00,meteohub,2013-01-03 12:17:00,
2013-01-03 04:22:00,36.9,28.8,29.96,North,-999,-999.0,-999.0,39,0.00,,,0.00,meteohub,2013-01-03 12:22:00,
2013-01-03 04:27:00,36.9,28.8,29.96,North,-999,-999.0,-999.0,39,0.00,,,0.00,meteohub,2013-01-03 12:27:00,
2013-01-03 04:32:00,37.0,28.9,29.96,North,-999,-999.0,-999.0,39,0.00,,,0.00,meteohub,2013-01-03 12:32:00,
2013-01-03 04:37:00,37.0,29.1,29.96,North,-999,-999.0,-999.0,39,0.00,,,0.00,meteohub,2013-01-03 12:37:00,
2013-01-03 04:42:00,37.0,28.9,29.96,North,-999,-999.0,-999.0,39,0.00,,,0.00,meteohub,2013-01-03 12:42:00,
2013-01-03 04:47:00,37.0,28.9,29.96,North,-999,-999.0,-999.0,39,0.00,,,0.00,meteohub,2013-01-03 12:47:00,
2013-01-03 04:52:00,37.0,28.9,29.96,North,-999,-999.0,-999.0,39,0.00,,,0.00,meteohub,2013-01-03 12:52:00,
2013-01-03 04:57:00,36.9,28.8,29.96,North,-999,-999.0,-999.0,39,0.00,,,0.00,meteohub,2013-01-03 12:57:00,
2013-01-03 05:02:00,36.9,28.8,29.96,North,-999,-999.0,-999.0,39,0.00,,,0.00,meteohub,2013-01-03 13:02:00,
2013-01-03 05:07:00,36.7,28.6,29.96,North,-999,-999.0,-999.0,39,0.00,,,0.00,meteohub,2013-01-03 13:07:00,
2013-01-03 05:12:00,36.5,28.4,29.96,North,-999,-999.0,-999.0,39,0.00,,,0.00,meteohub,2013-01-03 13:12:00,
2013-01-03 05:17:00,36.5,28.4,29.96,North,-999,-999.0,-999.0,39,0.00,,,0.00,meteohub,2013-01-03 13:17:00,
2013-01-03 05:22:00,36.3,28.2,29.96,North,-999,-999.0,-999.0,39,0.00,,,0.00,meteohub,2013-01-03 13:22:00,
2013-01-03 05:27:00,36.3,28.2,29.96,North,-999,-999.0,-999.0,39,0.00,,,0.00,meteohub,2013-01-03 13:27:00,
2013-01-03 05:32:00,36.1,28.4,29.96,North,-999,-999.0,-999.0,39,0.00,,,0.00,meteohub,2013-01-03 13:32:00,
2013-01-03 05:37:00,36.1,28.4,29.96,North,-999,-999.0,-999.0,39,0.00,,,0.00,meteohub,2013-01-03 13:37:00,
2013-01-03 05:42:00,36.1,28.4,29.96,North,-999,-999.0,-999.0,39,0.00,,,0.00,meteohub,2013-01-03 13:42:00,
2013-01-03 05:47:00,36.1,28.6,29.96,North,-999,-999.0,-999.0,39,0.00,,,0.00,meteohub,2013-01-03 13:47:00,
2013-01-03 05:52:00,36.1,28.6,29.96,North,-999,-999.0,-999.0,39,0.00,,,0.00,meteohub,2013-01-03 13:52:00,
2013-01-03 05:57:00,36.1,28.6,29.96,North,-999,-999.0,-999.0,39,0.00,,,0.00,meteohub,2013-01-03 13:57:00,
2013-01-03 06:02:00,36.1,28.6,29.96,North,-999,-999.0,-999.0,39,0.00,,,0.00,meteohub,2013-01-03 14:02:00,
2013-01-03 06:07:00,36.1,28.6,29.96,North,-999,-999.0,-999.0,39,0.00,,,0.00,meteohub,2013-01-03 14:07:00,
2013-01-03 06:12:00,36.1,28.9,29.96,North,-999,-999.0,-999.0,39,0.00,,,0.00,meteohub,2013-01-03 14:12:00,
2013-01-03 06:17:00,36.1,28.9,29.96,North,-999,-999.0,-999.0,39,0.00,,,0.00,meteohub,2013-01-03 14:17:00,
2013-01-03 06:22:00,36.1,28.9,29.96,North,-999,-999.0,-999.0,39,0.00,,,0.00,meteohub,2013-01-03 14:22:00,
2013-01-03 06:27:00,36.1,28.9,29.96,North,-999,-999.0,-999.0,39,0.00,,,0.00,meteohub,2013-01-03 14:27:00,
2013-01-03 06:32:00,36.1,28.9,29.96,North,-999,-999.0,-999.0,39,0.00,,,0.00,meteohub,2013-01-03 14:32:00,
2013-01-03 06:37:00,36.1,28.9,29.96,North,-999,-999.0,-999.0,39,0.00,,,0.00,meteohub,2013-01-03 14:37:00,
2013-01-03 06:42:00,36.1,29.3,29.96,North,-999,-999.0,-999.0,39,0.00,,,0.00,meteohub,2013-01-03 14:42:00,
2013-01-03 06:48:00,36.1,29.3,29.96,North,-999,-999.0,-999.0,39,0.00,,,0.00,meteohub,2013-01-03 14:48:00,
2013-01-03 06:53:00,36.1,29.3,29.96,North,-999,-999.0,-999.0,38,0.00,,,0.00,meteohub,2013-01-03 14:53:00,
2013-01-03 06:58:00,36.0,29.1,29.96,North,-999,-999.0,-999.0,38,0.00,,,0.00,meteohub,2013-01-03 14:58:00,
2013-01-03 07:03:00,36.0,29.1,29.96,North,-999,-999.0,-999.0,38,0.00,,,0.00,meteohub,2013-01-03 15:03:00,
2013-01-03 07:08:00,36.0,29.1,29.96,North,-999,-999.0,-999.0,38,0.00,,,0.00,meteohub,2013-01-03 15:08:00,
2013-01-03 07:13:00,36.0,29.1,29.99,North,-999,-999.0,-999.0,38,0.00,,,0.00,meteohub,2013-01-03 15:13:00,
2013-01-03 07:18:00,36.0,29.1,29.99,North,-999,-999.0,-999.0,38,0.00,,,0.00,meteohub,2013-01-03 15:18:00,
2013-01-03 07:23:00,36.0,29.1,29.99,North,-999,-999.0,-999.0,38,0.00,,,0.00,meteohub,2013-01-03 15:23:00,
2013-01-03 07:29:00,36.0,29.5,29.96,North,-999,-999.0,-999.0,38,0.00,,,0.00,meteohub,2013-01-03 15:29:00,
2013-01-03 07:34:00,36.1,29.7,29.96,North,-999,-999.0,-999.0,38,0.00,,,0.00,meteohub,2013-01-03 15:34:00,
2013-01-03 07:39:00,36.1,29.7,29.96,North,-999,-999.0,-999.0,38,0.00,,,0.00,meteohub,2013-01-03 15:39:00,
2013-01-03 07:44:00,36.1,29.7,29.96,North,-999,-999.0,-999.0,38,0.00,,,0.00,meteohub,2013-01-03 15:44:00,
2013-01-03 07:49:00,36.3,29.8,29.96,North,-999,-999.0,-999.0,38,0.00,,,0.00,meteohub,2013-01-03 15:49:00,
2013-01-03 07:54:00,36.3,29.8,29.99,North,-999,-999.0,-999.0,38,0.00,,,0.00,meteohub,2013-01-03 15:54:00,
2013-01-03 08:00:00,36.3,29.8,29.99,North,-999,-999.0,-999.0,38,0.00,,,0.00,meteohub,2013-01-03 16:00:00,
2013-01-03 08:05:00,36.3,29.8,29.99,North,-999,-999.0,-999.0,37,0.00,,,0.00,meteohub,2013-01-03 16:05:00,
2013-01-03 08:10:00,36.5,30.0,29.99,North,-999,-999.0,-999.0,37,0.00,,,0.00,meteohub,2013-01-03 16:10:00,
2013-01-03 08:15:00,36.7,30.6,29.99,North,-999,-999.0,-999.0,38,0.00,,,0.00,meteohub,2013-01-03 16:15:00,
2013-01-03 08:20:00,36.9,30.6,29.99,North,-999,-999.0,-999.0,38,0.00,,,0.00,meteohub,2013-01-03 16:20:00,
2013-01-03 08:25:00,37.0,30.7,29.99,North,-999,-999.0,-999.0,38,0.00,,,0.00,meteohub,2013-01-03 16:25:00,
2013-01-03 08:30:00,37.4,31.1,29.99,North,-999,-999.0,-999.0,38,0.00,,,0.00,meteohub,2013-01-03 16:30:00,
2013-01-03 08:35:00,37.6,31.3,29.99,North,-999,-999.0,-999.0,38,0.00,,,0.00,meteohub,2013-01-03 16:35:00,
2013-01-03 08:40:00,37.9,31.6,29.99,North,-999,-999.0,-999.0,38,0.00,,,0.00,meteohub,2013-01-03 16:40:00,
2013-01-03 08:46:00,38.5,32.2,29.99,North,-999,-999.0,-999.0,38,0.00,,,0.00,meteohub,2013-01-03 16:46:00,
2013-01-03 08:51:00,38.7,32.4,29.99,North,-999,-999.0,-999.0,38,0.00,,,0.00,meteohub,2013-01-03 16:51:00,
2013-01-03 08:56:00,38.8,32.5,29.99,North,-999,-999.0,-999.0,38,0.00,,,0.00,meteohub,2013-01-03 16:56:00,
2013-01-03 09:01:00,39.2,32.9,29.99,North,-999,-999.0,-999.0,38,0.00,,,0.00,meteohub,2013-01-03 17:01:00,
2013-01-03 09:06:00,39.4,33.1,29.99,North,-999,-999.0,-999.0,38,0.00,,,0.00,meteohub,2013-01-03 17:06:00,
2013-01-03 09:11:00,39.7,33.4,30.01,North,-999,-999.0,-999.0,38,0.00,,,0.00,meteohub,2013-01-03 17:11:00,
2013-01-03 09:16:00,39.9,33.6,30.01,North,-999,-999.0,-999.0,38,0.00,,,0.00,meteohub,2013-01-03 17:16:00,
2013-01-03 09:21:00,40.1,33.8,30.01,North,-999,-999.0,-999.0,38,0.00,,,0.00,meteohub,2013-01-03 17:21:00,
2013-01-03 09:26:00,40.5,34.2,30.01,North,-999,-999.0,-999.0,38,0.00,,,0.00,meteohub,2013-01-03 17:26:00,
2013-01-03 09:31:00,41.0,34.7,30.01,North,-999,-999.0,-999.0,38,0.00,,,0.00,meteohub,2013-01-03 17:31:00,
2013-01-03 09:37:00,41.4,35.1,30.01,North,-999,-999.0,-999.0,38,0.00,,,0.00,meteohub,2013-01-03 17:37:00,
2013-01-03 09:42:00,41.9,35.6,30.01,North,-999,-999.0,-999.0,38,0.00,,,0.00,meteohub,2013-01-03 17:42:00,
2013-01-03 09:47:00,42.3,36.0,30.01,North,-999,-999.0,-999.0,38,0.00,,,0.00,meteohub,2013-01-03 17:47:00,
2013-01-03 09:52:00,42.6,36.3,30.01,North,-999,-999.0,-999.0,38,0.00,,,0.00,meteohub,2013-01-03 17:52:00,
2013-01-03 09:57:00,43.0,36.3,30.01,North,-999,-999.0,-999.0,38,0.00,,,0.00,meteohub,2013-01-03 17:57:00,
2013-01-03 10:02:00,43.3,36.7,30.01,North,-999,-999.0,-999.0,38,0.00,,,0.00,meteohub,2013-01-03 18:02:00,
2013-01-03 10:07:00,43.5,36.5,30.01,North,-999,-999.0,-999.0,38,0.00,,,0.00,meteohub,2013-01-03 18:07:00,
2013-01-03 10:12:00,44.1,37.0,30.01,North,-999,-999.0,-999.0,38,0.00,,,0.00,meteohub,2013-01-03 18:12:00,
2013-01-03 10:17:00,44.2,36.5,30.01,North,-999,-999.0,-999.0,38,0.00,,,0.00,meteohub,2013-01-03 18:17:00,
2013-01-03 10:22:00,44.8,36.7,30.01,North,-999,-999.0,-999.0,38,0.00,,,0.00,meteohub,2013-01-03 18:22:00,
2013-01-03 10:27:00,45.3,36.9,30.01,North,-999,-999.0,-999.0,38,0.00,,,0.00,meteohub,2013-01-03 18:27:00,
2013-01-03 10:32:00,45.9,36.3,30.01,North,-999,-999.0,-999.0,38,0.00,,,0.00,meteohub,2013-01-03 18:32:00,
2013-01-03 10:37:00,46.2,34.3,30.01,North,-999,-999.0,-999.0,38,0.00,,,0.00,meteohub,2013-01-03 18:37:00,
2013-01-03 10:42:00,46.6,34.3,30.01,North,-999,-999.0,-999.0,38,0.00,,,0.00,meteohub,2013-01-03 18:42:00,
2013-01-03 10:47:00,46.9,34.2,30.01,North,-999,-999.0,-999.0,38,0.00,,,0.00,meteohub,2013-01-03 18:47:00,
2013-01-03 10:52:00,47.1,34.0,30.01,North,-999,-999.0,-999.0,38,0.00,,,0.00,meteohub,2013-01-03 18:52:00,
2013-01-03 10:57:00,47.5,33.8,30.01,North,-999,-999.0,-999.0,38,0.00,,,0.00,meteohub,2013-01-03 18:57:00,
2013-01-03 11:02:00,47.8,34.2,30.01,North,-999,-999.0,-999.0,38,0.00,,,0.00,meteohub,2013-01-03 19:02:00,
2013-01-03 11:07:00,48.2,33.6,30.01,North,-999,-999.0,-999.0,38,0.00,,,0.00,meteohub,2013-01-03 19:07:00,
2013-01-03 11:12:00,48.4,33.8,30.01,North,-999,-999.0,-999.0,38,0.00,,,0.00,meteohub,2013-01-03 19:12:00,
2013-01-03 11:17:00,48.7,32.9,30.01,North,-999,-999.0,-999.0,38,0.00,,,0.00,meteohub,2013-01-03 19:17:00,
2013-01-03 11:52:00,51.6,32.5,29.99,North,-999,-999.0,-999.0,39,0.00,,,0.00,meteohub,2013-01-03 19:52:00,
2013-01-03 11:58:00,52.0,32.9,29.99,North,-999,-999.0,-999.0,39,0.00,,,0.00,meteohub,2013-01-03 19:58:00,
2013-01-03 12:03:00,52.2,32.0,29.99,North,-999,-999.0,-999.0,39,0.00,,,0.00,meteohub,2013-01-03 20:03:00,
2013-01-03 12:08:00,52.5,32.4,29.99,North,-999,-999.0,-999.0,39,0.00,,,0.00,meteohub,2013-01-03 20:08:00,
2013-01-03 12:13:00,52.9,31.6,29.99,North,-999,-999.0,-999.0,39,0.00,,,0.00,meteohub,2013-01-03 20:13:00,
2013-01-03 12:18:00,53.2,32.4,29.99,North,-999,-999.0,-999.0,39,0.00,,,0.00,meteohub,2013-01-03 20:18:00,
2013-01-03 12:23:00,53.2,31.3,29.99,North,-999,-999.0,-999.0,39,0.00,,,0.00,meteohub,2013-01-03 20:23:00,
2013-01-03 12:28:00,53.6,31.6,29.99,North,-999,-999.0,-999.0,40,0.00,,,0.00,meteohub,2013-01-03 20:28:00,
2013-01-03 12:33:00,53.8,31.8,29.99,North,-999,-999.0,-999.0,40,0.00,,,0.00,meteohub,2013-01-03 20:33:00,
2013-01-03 12:38:00,54.0,32.0,29.99,North,-999,-999.0,-999.0,40,0.00,,,0.00,meteohub,2013-01-03 20:38:00,
2013-01-03 12:44:00,54.3,32.4,29.99,North,-999,-999.0,-999.0,42,0.00,,,0.00,meteohub,2013-01-03 20:44:00,
2013-01-03 12:49:00,54.5,31.8,29.99,North,-999,-999.0,-999.0,43,0.00,,,0.00,meteohub,2013-01-03 20:49:00,
2013-01-03 12:54:00,54.7,31.5,29.99,North,-999,-999.0,-999.0,43,0.00,,,0.00,meteohub,2013-01-03 20:54:00,
2013-01-03 12:59:00,54.7,30.9,29.99,North,-999,-999.0,-999.0,43,0.00,,,0.00,meteohub,2013-01-03 20:59:00,
2013-01-03 13:04:00,54.9,30.9,29.99,North,-999,-999.0,-999.0,43,0.00,,,0.00,meteohub,2013-01-03 21:04:00,
2013-01-03 13:09:00,54.9,30.4,29.99,North,-999,-999.0,-999.0,43,0.00,,,0.00,meteohub,2013-01-03 21:09:00,
2013-01-03 13:14:00,55.0,31.1,29.99,North,-999,-999.0,-999.0,43,0.00,,,0.00,meteohub,2013-01-03 21:14:00,
2013-01-03 13:19:00,55.0,29.8,29.99,North,-999,-999.0,-999.0,43,0.00,,,0.00,meteohub,2013-01-03 21:19:00,
2013-01-03 13:24:00,55.2,30.7,29.99,North,-999,-999.0,-999.0,43,0.00,,,0.00,meteohub,2013-01-03 21:24:00,
2013-01-03 13:29:00,55.6,30.4,29.99,North,-999,-999.0,-999.0,43,0.00,,,0.00,meteohub,2013-01-03 21:29:00,
2013-01-03 13:34:00,55.8,30.6,29.99,North,-999,-999.0,-999.0,43,0.00,,,0.00,meteohub,2013-01-03 21:34:00,
2013-01-03 13:40:00,55.9,30.0,29.99,North,-999,-999.0,-999.0,43,0.00,,,0.00,meteohub,2013-01-03 21:40:00,
2013-01-03 13:46:00,55.9,30.0,29.99,North,-999,-999.0,-999.0,43,0.00,,,0.00,meteohub,2013-01-03 21:46:00,
2013-01-03 13:51:00,55.9,29.3,29.99,North,-999,-999.0,-999.0,43,0.00,,,0.00,meteohub,2013-01-03 21:51:00,
2013-01-03 13:56:00,56.1,29.5,29.96,North,-999,-999.0,-999.0,43,0.00,,,0.00,meteohub,2013-01-03 21:56:00,
2013-01-03 14:01:00,56.3,30.4,29.96,North,-999,-999.0,-999.0,43,0.00,,,0.00,meteohub,2013-01-03 22:01:00,
2013-01-03 14:06:00,56.3,29.7,29.96,North,-999,-999.0,-999.0,42,0.00,,,0.00,meteohub,2013-01-03 22:06:00,
2013-01-03 14:11:00,56.5,29.8,29.99,North,-999,-999.0,-999.0,42,0.00,,,0.00,meteohub,2013-01-03 22:11:00,
2013-01-03 14:17:00,56.7,30.0,29.99,North,-999,-999.0,-999.0,42,0.00,,,0.00,meteohub,2013-01-03 22:17:00,
2013-01-03 14:22:00,56.7,30.0,29.99,North,-999,-999.0,-999.0,42,0.00,,,0.00,meteohub,2013-01-03 22:22:00,
2013-01-03 14:27:00,56.7,30.0,29.96,North,-999,-999.0,-999.0,42,0.00,,,0.00,meteohub,2013-01-03 22:27:00,
2013-01-03 14:32:00,56.8,30.2,29.96,North,-999,-999.0,-999.0,42,0.00,,,0.00,meteohub,2013-01-03 22:32:00,
2013-01-03 14:37:00,56.8,30.2,29.96,North,-999,-999.0,-999.0,42,0.00,,,0.00,meteohub,2013-01-03 22:37:00,
2013-01-03 14:42:00,56.8,30.2,29.99,North,-999,-999.0,-999.0,41,0.00,,,0.00,meteohub,2013-01-03 22:42:00,
2013-01-03 14:47:00,56.8,30.2,29.99,North,-999,-999.0,-999.0,41,0.00,,,0.00,meteohub,2013-01-03 22:47:00,
2013-01-03 14:52:00,57.0,30.9,29.99,North,-999,-999.0,-999.0,41,0.00,,,0.00,meteohub,2013-01-03 22:52:00,
2013-01-03 14:57:00,56.8,30.9,29.99,North,-999,-999.0,-999.0,41,0.00,,,0.00,meteohub,2013-01-03 22:57:00,
2013-01-03 15:02:00,56.8,30.9,29.99,North,-999,-999.0,-999.0,41,0.00,,,0.00,meteohub,2013-01-03 23:02:00,
2013-01-03 15:07:00,56.8,31.5,29.99,North,-999,-999.0,-999.0,41,0.00,,,0.00,meteohub,2013-01-03 23:07:00,
2013-01-03 15:13:00,57.0,31.6,29.96,North,-999,-999.0,-999.0,41,0.00,,,0.00,meteohub,2013-01-03 23:13:00,
2013-01-03 15:18:00,56.8,31.5,29.96,North,-999,-999.0,-999.0,41,0.00,,,0.00,meteohub,2013-01-03 23:18:00,
2013-01-03 15:23:00,56.8,31.5,29.96,North,-999,-999.0,-999.0,41,0.00,,,0.00,meteohub,2013-01-03 23:23:00,
2013-01-03 15:28:00,56.7,31.3,29.96,North,-999,-999.0,-999.0,41,0.00,,,0.00,meteohub,2013-01-03 23:28:00,
2013-01-03 15:33:00,56.7,30.7,29.96,North,-999,-999.0,-999.0,41,0.00,,,0.00,meteohub,2013-01-03 23:33:00,
2013-01-03 15:38:00,56.5,30.6,29.96,North,-999,-999.0,-999.0,41,0.00,,,0.00,meteohub,2013-01-03 23:38:00,
2013-01-03 15:43:00,56.5,30.6,29.96,North,-999,-999.0,-999.0,41,0.00,,,0.00,meteohub,2013-01-03 23:43:00,
2013-01-03 15:48:00,56.3,31.1,29.96,North,-999,-999.0,-999.0,41,0.00,,,0.00,meteohub,2013-01-03 23:48:00,
2013-01-03 15:53:00,56.3,31.1,29.96,North,-999,-999.0,-999.0,41,0.00,,,0.00,meteohub,2013-01-03 23:53:00,
2013-01-03 15:58:00,56.1,30.9,29.99,North,-999,-999.0,-999.0,41,0.00,,,0.00,meteohub,2013-01-03 23:58:00,
2013-01-03 16:04:00,56.1,30.9,29.99,North,-999,-999.0,-999.0,41,0.00,,,0.00,meteohub,2013-01-04 00:04:00,
2013-01-03 16:09:00,55.9,30.7,29.99,North,-999,-999.0,-999.0,40,0.00,,,0.00,meteohub,2013-01-04 00:09:00,
2013-01-03 16:14:00,55.8,31.1,29.99,North,-999,-999.0,-999.0,40,0.00,,,0.00,meteohub,2013-01-04 00:14:00,
2013-01-03 16:19:00,55.6,31.1,29.99,North,-999,-999.0,-999.0,40,0.00,,,0.00,meteohub,2013-01-04 00:19:00,
2013-01-03 16:24:00,55.2,31.3,29.99,North,-999,-999.0,-999.0,40,0.00,,,0.00,meteohub,2013-01-04 00:24:00,
2013-01-03 16:29:00,54.9,32.2,29.99,North,-999,-999.0,-999.0,40,0.00,,,0.00,meteohub,2013-01-04 00:29:00,
2013-01-03 16:34:00,54.5,33.1,29.99,North,-999,-999.0,-999.0,41,0.00,,,0.00,meteohub,2013-01-04 00:34:00,
2013-01-03 16:39:00,54.1,33.3,29.99,North,-999,-999.0,-999.0,41,0.00,,,0.00,meteohub,2013-01-04 00:39:00,
2013-01-03 16:44:00,53.4,33.6,29.99,North,-999,-999.0,-999.0,40,0.00,,,0.00,meteohub,2013-01-04 00:44:00,
2013-01-03 16:49:00,52.9,33.3,29.99,North,-999,-999.0,-999.0,40,0.00,,,0.00,meteohub,2013-01-04 00:49:00,
2013-01-03 16:54:00,52.5,33.4,29.99,North,-999,-999.0,-999.0,40,0.00,,,0.00,meteohub,2013-01-04 00:54:00,
2013-01-03 17:00:00,52.0,33.4,29.99,North,-999,-999.0,-999.0,40,0.00,,,0.00,meteohub,2013-01-04 01:00:00,
2013-01-03 17:05:00,51.6,34.2,29.99,North,-999,-999.0,-999.0,40,0.00,,,0.00,meteohub,2013-01-04 01:05:00,
2013-01-03 17:10:00,51.3,33.8,29.99,North,-999,-999.0,-999.0,40,0.00,,,0.00,meteohub,2013-01-04 01:10:00,
2013-01-03 17:15:00,51.1,34.0,29.99,North,-999,-999.0,-999.0,40,0.00,,,0.00,meteohub,2013-01-04 01:15:00,
2013-01-03 17:20:00,50.7,33.8,29.99,North,-999,-999.0,-999.0,40,0.00,,,0.00,meteohub,2013-01-04 01:20:00,
2013-01-03 17:25:00,50.4,33.8,29.99,North,-999,-999.0,-999.0,40,0.00,,,0.00,meteohub,2013-01-04 01:25:00,
2013-01-03 17:31:00,50.0,34.0,29.99,North,-999,-999.0,-999.0,39,0.00,,,0.00,meteohub,2013-01-04 01:31:00,
2013-01-03 17:36:00,49.6,34.2,29.99,North,-999,-999.0,-999.0,39,0.00,,,0.00,meteohub,2013-01-04 01:36:00,
2013-01-03 17:41:00,49.3,34.2,29.99,North,-999,-999.0,-999.0,39,0.00,,,0.00,meteohub,2013-01-04 01:41:00,
2013-01-03 17:46:00,48.9,34.3,29.99,North,-999,-999.0,-999.0,39,0.00,,,0.00,meteohub,2013-01-04 01:46:00,
2013-01-03 17:51:00,48.7,34.2,29.99,North,-999,-999.0,-999.0,39,0.00,,,0.00,meteohub,2013-01-04 01:51:00,
2013-01-03 17:56:00,48.4,33.8,29.99,North,-999,-999.0,-999.0,39,0.00,,,0.00,meteohub,2013-01-04 01:56:00,
2013-01-03 18:01:00,48.2,34.2,29.99,North,-999,-999.0,-999.0,40,0.00,,,0.00,meteohub,2013-01-04 02:01:00,
2013-01-03 18:06:00,47.8,34.2,29.99,North,-999,-999.0,-999.0,40,0.00,,,0.00,meteohub,2013-01-04 02:06:00,
2013-01-03 18:11:00,47.7,34.5,30.01,North,-999,-999.0,-999.0,40,0.00,,,0.00,meteohub,2013-01-04 02:11:00,
2013-01-03 18:17:00,47.5,34.3,30.01,North,-999,-999.0,-999.0,40,0.00,,,0.00,meteohub,2013-01-04 02:17:00,
2013-01-03 18:22:00,47.5,34.3,30.01,North,-999,-999.0,-999.0,40,0.00,,,0.00,meteohub,2013-01-04 02:22:00,
2013-01-03 18:27:00,47.3,34.2,30.01,North,-999,-999.0,-999.0,40,0.00,,,0.00,meteohub,2013-01-04 02:27:00,
2013-01-03 18:32:00,47.1,34.0,30.01,North,-999,-999.0,-999.0,40,0.00,,,0.00,meteohub,2013-01-04 02:32:00,
2013-01-03 18:37:00,46.9,33.8,30.01,North,-999,-999.0,-999.0,40,0.00,,,0.00,meteohub,2013-01-04 02:37:00,
2013-01-03 18:42:00,46.9,33.8,30.01,North,-999,-999.0,-999.0,40,0.00,,,0.00,meteohub,2013-01-04 02:42:00,
2013-01-03 18:47:00,46.8,33.6,30.01,North,-999,-999.0,-999.0,40,0.00,,,0.00,meteohub,2013-01-04 02:47:00,
2013-01-03 18:52:00,46.6,33.1,30.01,North,-999,-999.0,-999.0,40,0.00,,,0.00,meteohub,2013-01-04 02:52:00,
2013-01-03 18:57:00,46.6,33.1,30.01,North,-999,-999.0,-999.0,41,0.00,,,0.00,meteohub,2013-01-04 02:57:00,
2013-01-03 19:02:00,46.4,32.4,30.01,North,-999,-999.0,-999.0,41,0.00,,,0.00,meteohub,2013-01-04 03:02:00,
2013-01-03 19:07:00,46.2,32.7,30.01,North,-999,-999.0,-999.0,41,0.00,,,0.00,meteohub,2013-01-04 03:07:00,
2013-01-03 19:12:00,46.0,32.5,30.01,North,-999,-999.0,-999.0,41,0.00,,,0.00,meteohub,2013-01-04 03:12:00,
2013-01-03 19:17:00,46.0,32.5,30.01,North,-999,-999.0,-999.0,41,0.00,,,0.00,meteohub,2013-01-04 03:17:00,
2013-01-03 19:22:00,45.9,32.4,30.01,North,-999,-999.0,-999.0,41,0.00,,,0.00,meteohub,2013-01-04 03:22:00,
2013-01-03 19:27:00,45.7,32.5,30.01,North,-999,-999.0,-999.0,40,0.00,,,0.00,meteohub,2013-01-04 03:27:00,
2013-01-03 19:33:00,45.5,32.4,30.01,North,-999,-999.0,-999.0,40,0.00,,,0.00,meteohub,2013-01-04 03:33:00,
2013-01-03 19:38:00,45.3,32.7,30.01,North,-999,-999.0,-999.0,41,0.00,,,0.00,meteohub,2013-01-04 03:38:00,
2013-01-03 19:43:00,45.1,32.9,30.01,North,-999,-999.0,-999.0,41,0.00,,,0.00,meteohub,2013-01-04 03:43:00,
2013-01-03 19:48:00,45.1,32.9,30.01,North,-999,-999.0,-999.0,41,0.00,,,0.00,meteohub,2013-01-04 03:48:00,
2013-01-03 19:53:00,45.0,32.7,30.01,North,-999,-999.0,-999.0,41,0.00,,,0.00,meteohub,2013-01-04 03:53:00,
2013-01-03 19:58:00,44.8,32.9,30.01,North,-999,-999.0,-999.0,41,0.00,,,0.00,meteohub,2013-01-04 03:58:00,
2013-01-03 20:03:00,44.6,32.7,30.01,North,-999,-999.0,-999.0,41,0.00,,,0.00,meteohub,2013-01-04 04:03:00,
2013-01-03 20:08:00,44.6,32.7,30.01,North,-999,-999.0,-999.0,41,0.00,,,0.00,meteohub,2013-01-04 04:08:00,
2013-01-03 20:13:00,44.4,33.1,30.01,North,-999,-999.0,-999.0,41,0.00,,,0.00,meteohub,2013-01-04 04:13:00,
2013-01-03 20:18:00,44.4,33.4,30.01,North,-999,-999.0,-999.0,41,0.00,,,0.00,meteohub,2013-01-04 04:18:00,
2013-01-03 20:24:00,44.2,33.3,30.01,North,-999,-999.0,-999.0,40,0.00,,,0.00,meteohub,2013-01-04 04:24:00,
2013-01-03 20:29:00,44.1,33.1,30.01,North,-999,-999.0,-999.0,41,0.00,,,0.00,meteohub,2013-01-04 04:29:00,
2013-01-03 20:34:00,44.1,33.1,30.01,North,-999,-999.0,-999.0,41,0.00,,,0.00,meteohub,2013-01-04 04:34:00,
2013-01-03 20:39:00,43.9,33.3,30.01,North,-999,-999.0,-999.0,41,0.00,,,0.00,meteohub,2013-01-04 04:39:00,
2013-01-03 20:44:00,43.9,33.3,30.01,North,-999,-999.0,-999.0,41,0.00,,,0.00,meteohub,2013-01-04 04:44:00,
2013-01-03 20:49:00,43.9,33.6,30.01,North,-999,-999.0,-999.0,41,0.00,,,0.00,meteohub,2013-01-04 04:49:00,
2013-01-03 20:54:00,43.7,33.4,30.01,North,-999,-999.0,-999.0,41,0.00,,,0.00,meteohub,2013-01-04 04:54:00,
2013-01-03 20:59:00,43.7,33.4,30.01,North,-999,-999.0,-999.0,41,0.00,,,0.00,meteohub,2013-01-04 04:59:00,
2013-01-03 21:00:00,43.7,33.4,30.01,North,-999,-999.0,-999.0,41,0.00,,,0.00,meteohub,2013-01-04 05:00:00,
2013-01-03 21:02:00,43.7,33.4,30.01,North,-999,-999.0,-999.0,40,0.00,,,0.00,meteohub,2013-01-04 05:02:00,
2013-01-03 21:04:00,43.7,33.4,30.01,North,-999,-999.0,-999.0,40,0.00,,,0.00,meteohub,2013-01-04 05:04:00,
2013-01-03 21:06:00,43.7,33.4,30.01,North,-999,-999.0,-999.0,40,0.00,,,0.00,meteohub,2013-01-04 05:06:00,
2013-01-03 21:11:00,43.5,33.3,30.01,North,-999,-999.0,-999.0,40,0.00,,,0.00,meteohub,2013-01-04 05:11:00,
2013-01-03 21:16:00,43.5,33.6,30.01,North,-999,-999.0,-999.0,40,0.00,,,0.00,meteohub,2013-01-04 05:16:00,
2013-01-03 21:21:00,43.3,33.4,30.01,North,-999,-999.0,-999.0,40,0.00,,,0.00,meteohub,2013-01-04 05:21:00,
2013-01-03 21:26:00,43.5,34.0,30.01,North,-999,-999.0,-999.0,40,0.00,,,0.00,meteohub,2013-01-04 05:26:00,
2013-01-03 21:32:00,43.5,34.3,30.01,North,-999,-999.0,-999.0,40,0.00,,,0.00,meteohub,2013-01-04 05:32:00,
2013-01-03 21:37:00,43.5,34.3,30.01,North,-999,-999.0,-999.0,40,0.00,,,0.00,meteohub,2013-01-04 05:37:00,
2013-01-03 21:42:00,43.3,34.2,30.01,North,-999,-999.0,-999.0,40,0.00,,,0.00,meteohub,2013-01-04 05:42:00,
2013-01-03 21:47:00,43.2,34.0,30.01,North,-999,-999.0,-999.0,40,0.00,,,0.00,meteohub,2013-01-04 05:47:00,
2013-01-03 21:52:00,43.0,33.4,30.01,North,-999,-999.0,-999.0,40,0.00,,,0.00,meteohub,2013-01-04 05:52:00,
2013-01-03 21:57:00,43.0,33.4,30.01,North,-999,-999.0,-999.0,40,0.00,,,0.00,meteohub,2013-01-04 05:57:00,
2013-01-03 22:02:00,42.8,33.6,30.01,North,-999,-999.0,-999.0,40,0.00,,,0.00,meteohub,2013-01-04 06:02:00,
2013-01-03 22:07:00,42.8,33.6,30.01,North,-999,-999.0,-999.0,40,0.00,,,0.00,meteohub,2013-01-04 06:07:00,
2013-01-03 22:12:00,42.6,33.8,30.04,North,-999,-999.0,-999.0,40,0.00,,,0.00,meteohub,2013-01-04 06:12:00,
2013-01-03 22:17:00,42.6,33.8,30.04,North,-999,-999.0,-999.0,40,0.00,,,0.00,meteohub,2013-01-04 06:17:00,
2013-01-03 22:22:00,42.6,33.8,30.04,North,-999,-999.0,-999.0,40,0.00,,,0.00,meteohub,2013-01-04 06:22:00,
2013-01-03 22:27:00,42.6,33.8,30.04,North,-999,-999.0,-999.0,40,0.00,,,0.00,meteohub,2013-01-04 06:27:00,
2013-01-03 22:32:00,42.4,33.6,30.04,North,-999,-999.0,-999.0,40,0.00,,,0.00,meteohub,2013-01-04 06:32:00,
2013-01-03 22:37:00,42.4,33.6,30.04,North,-999,-999.0,-999.0,40,0.00,,,0.00,meteohub,2013-01-04 06:37:00,
2013-01-03 22:42:00,42.4,33.6,30.04,North,-999,-999.0,-999.0,39,0.00,,,0.00,meteohub,2013-01-04 06:42:00,
2013-01-03 22:47:00,42.3,33.6,30.04,North,-999,-999.0,-999.0,39,0.00,,,0.00,meteohub,2013-01-04 06:47:00,
2013-01-03 22:52:00,42.3,33.6,30.04,North,-999,-999.0,-999.0,39,0.00,,,0.00,meteohub,2013-01-04 06:52:00,
2013-01-03 22:57:00,42.3,33.6,30.04,North,-999,-999.0,-999.0,39,0.00,,,0.00,meteohub,2013-01-04 06:57:00,
2013-01-03 23:02:00,42.1,33.4,30.04,North,-999,-999.0,-999.0,39,0.00,,,0.00,meteohub,2013-01-04 07:02:00,
2013-01-03 23:07:00,41.9,33.3,30.04,North,-999,-999.0,-999.0,39,0.00,,,0.00,meteohub,2013-01-04 07:07:00,
2013-01-03 23:12:00,41.7,33.4,30.04,North,-999,-999.0,-999.0,39,0.00,,,0.00,meteohub,2013-01-04 07:12:00,
2013-01-03 23:17:00,41.7,33.4,30.04,North,-999,-999.0,-999.0,39,0.00,,,0.00,meteohub,2013-01-04 07:17:00,
2013-01-03 23:22:00,41.7,33.4,30.04,North,-999,-999.0,-999.0,39,0.00,,,0.00,meteohub,2013-01-04 07:22:00,
2013-01-03 23:27:00,41.7,33.4,30.04,North,-999,-999.0,-999.0,39,0.00,,,0.00,meteohub,2013-01-04 07:27:00,
2013-01-03 23:32:00,41.7,33.6,30.04,North,-999,-999.0,-999.0,39,0.00,,,0.00,meteohub,2013-01-04 07:32:00,
2013-01-03 23:37:00,41.7,33.6,30.04,North,-999,-999.0,-999.0,39,0.00,,,0.00,meteohub,2013-01-04 07:37:00,
2013-01-03 23:42:00,41.5,33.6,30.04,North,-999,-999.0,-999.0,39,0.00,,,0.00,meteohub,2013-01-04 07:42:00,
2013-01-03 23:47:00,41.5,33.6,30.04,North,-999,-999.0,-999.0,40,0.00,,,0.00,meteohub,2013-01-04 07:47:00,
2013-01-03 23:52:00,41.4,33.4,30.04,North,-999,-999.0,-999.0,40,0.00,,,0.00,meteohub,2013-01-04 07:52:00,
2013-01-03 23:57:00,41.4,33.6,30.01,North,-999,-999.0,-999.0,40,0.00,,,0.00,meteohub,2013-01-04 07:57:00,